Temp_Advection
nan nan nan nan nan nan nan nan nan nan nan nan nan nan nan nan nan nan nan nan nan nan nan nan nan nan nan nan nan nan nan nan nan nan nan nan nan nan nan nan nan nan nan nan nan nan nan nan nan nan nan nan nan nan nan nan nan nan nan nan nan nan nan nan nan nan nan nan nan
nan -0 0 0 0 0 0 0 0 0 0 0 0 0 0 0 0 0 -0 -0 -0 -0 -0 -0 -0 -0 0 -0 -0 -0 -0 -0 -0 -0 -0 -0 -0 -0 -0 -0 -0 -0 -0 -0 -0 -0 -0 -0 -0 -0 -0 -0 -0 -0 0 0 0 -0 -0 -0 -0 -0 -0 -0 -0 -0 -0 -0 nan
nan -0 -0 -0 -0 -0 -0 0 -0 -0 0 0 0 0 0 0 0 0 0 -0 -0 -0 -0 -0 -0 -0 -0 -0 -0 -0 -0 -0 -0 -0 -0 -0 -0 -0 -0 -0 -0 -0 -0 -0 -0 -0 -0 -0 -0 -0 -0 -0 -0 -0 -0 -0 -0 -0 -0 -0 -0 -0 -0 -0 -0 -0 -0 -0 nan
nan -0 -0 -0 -0 -0 -0 -0 -0 -0 -0 -0 -0 -0 -0 -0 -0 0 -0 -0 -0 -0 -0 -0 -0 -0 -0 -0 -0 -0 -0 -0 -0 -0 -0 -0 -0 -0 -0 -0 -0 -0 -0 -0 -0 -0 -0 -0 -0 -0 -0 -0 -0 -0 -0 -0 -0 -0 -0 -0 -0 -0 -0 -0 -0 -0 -0 -1 nan
nan -0 -0 -0 -0 -0 -0 -0 -0 -0 -0 -0 -0 -0 -0 -0 -0 -0 -0 -0 -0 -0 -0 -0 -0 -0 -0 -0 -0 -0 -0 -0 -0 -0 -0 -0 -0 -0 -0 -0 -0 -0 -0 -0 -0 -0 -0 -0 -0 -0 -0 -0 -0 -0 -0 -0 -0 -0 -0 -0 -0 -0 -0 -0 -0 -0 -0 -0 nan
nan -0 -0 -0 -0 -0 -0 -0 -0 -0 -0 -0 -0 -0 -0 -0 -0 -0 -0 -0 -0 -0 -0 -0 -0 -0 0 0 -0 -0 -0 -0 -0 -0 -0 -0 -0 -0 -0 -0 -0 -0 -0 -0 -0 -0 -0 -0 -0 -0 -0 -0 -0 -0 -0 -0 -0 -0 -0 -0 -0 -0 -0 -0 -0 -0 -0 -0 nan
nan -0 -0 -0 -0 -0 -0 -0 -0 -0 -0 -0 -0 -0 -0 -0 -0 -0 -0 -0 -0 -0 -0 -0 -0 -0 0 0 0 0 -0 -0 -0 -0 -0 -0 -0 -0 -0 -0 -0 -0 -0 -0 -0 -0 -0 -0 -0 -0 -0 -0 -0 -0 -0 -0 -0 -0 -0 -0 -0 -0 -0 -0 -0 -0 -0 -0 nan
nan -0 -0 -0 -0 -0 -0 -0 -0 -0 -0 -0 -0 -0 -0 -0 -0 -0 -0 -0 -0 -0 -0 -0 -0 -0 -0 0 0 0 -0 -0 -0 -0 -0 -0 -0 -0 -0 -0 -0 -0 -0 -0 -0 -0 -0 -0 -0 -0 -0 -0 -0 -0 -0 -0 -0 -0 -0 -0 -0 -0 -0 -0 -0 -0 -0 -0 nan
nan -0 -0 -0 -0 -0 -0 -0 -0 -0 -0 -0 -0 -0 -0 -0 -0 -0 -0 -0 -0 -0 -0 -0 -0 -0 -0 -0 -0 -0 -0 -0 -0 -0 -0 -0 -0 -0 -0 -0 -0 -0 -0 -0 -0 -0 -0 -0 -0 -0 -0 -0 -0 -0 -0 -0 -0 -0 -0 -0 -0 -0 -0 -0 -0 -0 -0 -0 nan
nan -0 -0 -0 -0 -0 -0 -0 -0 -0 -0 -0 -0 -0 -0 -0 -0 -0 -0 -0 -0 -0 -0 -0 -0 -0 -0 -0 -0 -0 -0 -0 -0 -0 -0 -0 -0 -0 -0 -0 -0 -0 -0 -0 -0 -0 -0 -0 -0 -0 -0 -0 -0 -0 -0 -0 -0 -0 -0 -0 -0 -0 -0 -0 -1 -0 -0 -0 nan
nan -0 -0 -0 -0 -0 -0 -0 -0 -0 -0 -0 -0 -0 -0 -0 -0 -0 -0 -0 -0 -0 -0 -0 -0 -0 -0 -0 -0 -0 -0 -0 -0 -0 -0 -0 -0 -0 -0 -0 -0 -0 -0 -0 -0 -0 -0 -0 -0 -0 -0 -0 -0 -0 -0 -0 -0 -0 -0 -0 -0 -0 0 0 -0 -0 -0 -1 nan
nan -0 -0 -0 -0 -0 -0 -0 -0 -0 -0 -0 -0 -0 -0 -0 -0 -0 -0 -0 -0 -0 -0 -0 -0 -0 -0 -0 -0 -0 -0 -0 -0 -0 -0 -0 -0 -0 -0 -0 -0 -0 -0 -0 -0 -0 -0 -0 -0 -0 -0 -0 -0 -0 -0 -0 -0 -0 -0 0 0 0 0 0 0 -0 -0 -0 nan
nan -0 -0 -0 0 -0 -0 -0 -0 -0 -0 -0 -0 -0 -0 -0 -0 -0 -0 -0 -0 -0 -0 -0 -0 -0 -0 -0 -0 -0 -0 -0 -0 -0 -0 -0 -0 -0 -0 -0 -0 -0 -0 -0 -0 -0 -0 -0 -0 -0 -0 -0 -0 -0 -0 -0 -0 -0 -0 0 0 0 0 0 0 0 -0 -0 nan
nan -0 -0 -0 -0 0 -0 -0 -0 -0 -0 -0 -0 -0 -0 -0 -0 -0 -0 -0 -0 -0 -0 -0 -0 -0 -0 -0 -0 -0 -0 -0 -0 -0 -0 -0 -0 -0 -0 -0 -0 -0 -0 -0 -0 -0 -0 -0 -0 -0 -0 -0 -0 -0 -0 -0 -0 -0 -0 -0 -0 0 0 0 0 -0 -0 -0 nan
nan -0 -0 -0 -0 -0 0 -0 0 0 -0 -0 -0 -0 -0 -0 -0 -0 -0 -0 -0 -0 -0 -0 -0 -0 -0 -0 -0 -0 -0 -0 -0 -0 -0 -0 -0 -0 -0 -0 -0 -0 -0 -0 -0 -0 -0 -0 -0 -0 -0 -0 -0 -0 -0 -0 -0 -0 -0 -0 -0 -0 -0 0 0 -0 -0 -1 nan
nan -0 -0 -0 -0 0 0 0 0 -0 -0 -0 -0 -0 -0 -0 -0 -0 -0 -0 -0 -0 -0 -0 -0 -0 -0 -0 -0 -0 -0 -0 -0 -0 -0 -0 -0 -0 -0 -0 -0 -0 -0 -0 -0 -0 -0 -0 -0 -0 -0 -0 -0 -0 -0 -0 -0 -0 -0 -0 -0 -0 -0 -0 -0 -0 -0 -1 nan
nan -0 -0 -0 -0 -0 0 0 0 0 -0 -0 -0 -0 -0 -0 -0 -0 -0 -0 -0 -0 -0 -0 -0 -0 -0 -0 -0 -0 -0 -0 -0 -0 -0 -0 -0 -0 -0 -0 -0 -0 -0 -0 -0 -0 -0 -0 -0 -0 -0 -0 -0 -0 -0 -0 -0 -0 -0 -0 -0 -0 -0 -0 -0 -0 -0 -0 nan
nan -0 -0 -0 -0 0 0 0 0 0 0 0 0 -0 -0 -0 -0 -0 -0 -0 -0 -0 -0 -0 -0 -0 -0 -0 -0 -0 -0 -0 -0 -0 -0 -0 -0 -0 -0 -0 -0 -0 -0 -0 -0 -0 -0 -0 -0 -0 -0 -0 -0 -0 -0 -0 -0 -0 -0 0 0 0 0 0 0 0 -0 -0 nan
nan -0 -0 -0 -0 0 0 0 0 0 0 0 -0 -0 -0 -0 -0 -0 -0 -0 -0 -0 -0 -0 -0 0 0 0 -0 -0 -0 -0 -0 -0 -0 -0 -0 -0 -0 -0 -0 -0 -0 -0 -0 -0 -0 -0 -0 -0 -0 -0 -0 -0 -0 -0 -0 0 0 0 0 0 0 0 0 0 0 0 nan
nan -0 -0 -0 -0 0 0 0 0 0 0 0 -0 -0 -0 -0 -0 -0 -0 -0 -0 -0 -0 -0 -0 0 0 0 -0 -0 -0 -0 -0 -0 -0 -0 -0 -0 -0 -0 -0 -0 -0 -0 -0 -0 -0 -0 -0 -0 -0 -0 -0 -0 -0 -0 0 0 0 0 0 0 0 0 0 0 0 0 nan
nan -0 -0 -0 -0 0 0 0 0 0 0 0 -0 -0 -0 -0 -0 -0 -0 -0 -0 -0 -0 -0 0 0 0 0 -0 -0 -0 -0 -0 -0 -0 -0 -0 -0 -0 -0 -0 -0 -0 -0 -0 -0 -0 -0 -0 -0 -0 -0 -0 -0 -0 -0 -0 0 0 0 0 0 -0 -0 -0 -0 0 0 nan
nan -0 -0 -0 -0 0 0 0 0 0 0 0 0 -0 -0 -0 -0 -0 -0 -0 -0 -0 -0 0 0 0 -0 0 -0 -0 -0 -0 -0 -0 -0 -0 -0 -0 -0 -0 0 -0 -0 -0 -0 -0 -0 -0 -0 -0 -0 -0 -0 -0 -0 -0 -0 -0 0 0 0 0 -0 -0 -0 -0 0 0 nan
nan -0 -0 -0 -0 -0 0 0 0 0 0 0 0 0 -0 -0 -0 -0 -0 -0 -0 -0 -0 0 0 -0 -0 -0 -0 -0 -0 -0 -0 -0 -0 -0 -0 -0 -0 -0 -0 0 -0 -0 -0 -0 -0 -0 -0 -0 -0 -0 -0 -0 -0 -0 -0 -1 -0 -0 0 0 0 -0 -0 -0 0 0 nan
nan -0 -0 -0 -0 -0 0 0 -0 -0 -0 0 -0 -0 -0 -0 -0 -0 -0 -0 -0 -0 0 0 -0 -0 -0 -0 -0 -0 -0 -0 -0 -0 -0 -0 -0 -0 -0 -0 -0 -0 0 0 -0 -0 -0 -0 -0 -0 -0 -0 -0 -0 -0 -0 -0 -0 -1 -1 -0 0 0 0 0 0 -0 -0 nan
nan -0 -0 -0 -0 -0 -0 -0 -0 -0 -0 -0 -0 -0 -0 -0 -0 -0 -0 -0 -0 -0 -0 -0 -0 -0 -0 -0 -0 -0 -0 -0 -0 -0 -0 -0 -0 -0 -0 -0 -0 -0 0 0 -0 -0 -0 -0 -0 -0 -0 -0 -0 -0 -0 -0 -0 -0 -0 -1 -1 -0 -0 0 0 0 0 -0 nan
nan -0 -0 -0 -0 -0 -0 -0 -0 -0 -0 -0 -0 -0 -0 -0 -0 -0 -0 -0 -0 -0 -0 -0 -0 -0 -0 -0 -0 -0 -0 -0 -0 -0 -0 -0 -0 -0 -0 -0 -0 -0 0 0 -0 -0 -0 -0 -0 -0 -0 -0 -0 -0 -0 -0 -0 -0 -0 -0 -1 -1 -1 -0 -0 0 0 0 nan
nan -0 -0 -0 -0 -0 -0 -0 -0 -0 -0 -0 -0 -0 -0 -0 -0 -0 0 0 -0 -0 -0 -0 -0 -0 -0 -0 -0 -0 -0 -0 -0 -0 -0 -0 -0 -0 -0 -0 -0 -0 0 0 0 -0 -0 -0 -0 -0 -0 -0 -0 0 0 -0 -0 -0 -0 -0 -0 -1 -1 -1 -1 -0 -0 0 nan
nan -0 -0 -0 -0 -0 -0 -0 -0 -0 -0 -0 -0 -0 -0 -0 0 0 0 0 -0 -0 -0 -0 -0 -0 -0 -0 -0 -0 -0 -0 -0 -0 -0 -0 -0 -0 -0 -0 -0 -0 0 -0 -0 -0 -0 -0 -0 -0 -0 -0 0 0 0 -0 -0 -0 -0 -0 -0 -1 -1 -1 -1 -1 -1 -0 nan
nan -0 -0 -0 -0 -0 -0 -0 -0 -0 -0 -0 -0 -0 -0 0 0 0 0 -0 -0 -0 -0 -0 -0 -0 -0 -0 -0 -0 -0 -0 -0 -0 -0 -0 -0 -0 -0 -0 -0 0 0 -0 -0 -0 -0 -0 -0 -0 -0 -0 0 0 0 -0 -0 -0 -0 -0 -0 -0 -1 -1 -1 -1 -1 -1 nan
nan -0 -0 -0 -0 -0 -0 -0 -0 -0 -0 -0 0 0 0 0 0 0 0 -0 -0 -0 -0 -0 -0 -0 -0 -0 -0 -0 -0 -0 -0 -0 -0 -0 -0 -0 -0 -0 -0 -0 0 -0 -0 -0 -0 -0 -0 -0 -0 -0 0 0 0 0 -0 -0 -0 -0 -0 -0 -0 -1 -1 -1 -1 -1 nan
nan 0 -0 -0 -0 -0 -0 -0 -0 -0 0 0 0 0 0 0 0 0 -0 -0 -0 -0 -0 -0 -0 -0 -0 -0 -0 -0 -0 -0 -0 -0 -0 -0 0 -0 -0 -0 -0 -0 -0 -0 -0 -0 -0 -0 -0 -0 -0 -0 0 0 0 0 0 0 -0 -0 -0 -0 -0 -0 -1 -1 -1 -1 nan
nan 0 0 -0 -0 -0 -0 -0 -0 0 0 0 0 0 0 0 0 -0 -0 -0 -0 -0 -0 -0 -0 -0 -0 -0 -0 -0 -0 -0 -0 -0 -0 -0 0 0 -0 -0 -0 -0 -0 -0 -0 -0 -0 -0 -0 -0 -0 -0 0 0 0 0 0 0 0 -0 -0 -0 -0 -0 -1 -0 -0 -0 nan
nan 0 0 0 0 0 -0 -0 0 0 0 0 0 0 0 -0 -0 -0 -0 -0 -0 -0 -0 -0 -0 -0 -0 -0 -0 -0 -0 -0 -0 -0 -0 0 0 -0 -0 -0 -0 -0 -0 0 0 -0 -0 -0 -0 -0 -0 -0 0 0 0 0 0 -0 -0 -0 -0 -0 -0 -0 -0 -0 -0 -0 nan
nan 0 0 0 0 0 0 0 0 0 0 0 0 0 -0 -0 -0 -0 -0 -0 -0 -0 -0 -0 -0 -0 -0 -0 -0 -0 -0 -0 -0 -0 -0 0 0 0 -0 -0 -0 -0 -0 0 0 0 -0 -0 -0 -0 -0 -0 0 0 0 -0 -0 -0 -0 -0 -0 -0 -0 -0 0 0 -0 -0 nan
nan 0 0 0 0 0 0 0 0 0 0 0 -0 -0 -0 -0 -0 -0 -0 -0 -0 -0 -0 -0 -0 -0 -0 -0 -0 -0 -0 -0 -0 -0 -0 0 0 0 0 -0 -0 -0 -0 0 0 0 -0 -0 -0 -0 -0 -0 -0 0 0 -0 -0 -0 -0 -0 -0 -0 -0 -0 -0 -0 -0 -0 nan
nan 0 0 0 0 0 0 0 0 0 0 -0 -0 -0 -0 -0 -0 -0 -0 -0 -0 -0 -0 -0 -0 -0 -0 -0 -0 -0 -0 -0 -0 -0 -0 -0 0 0 0 -0 -0 -0 -0 -0 0 0 -0 -0 -0 -0 -0 -0 -0 -0 -0 -0 -1 -1 -0 -0 -0 -0 -0 -0 -0 -0 -0 -0 nan
nan 0 0 0 0 0 0 0 0 0 0 -0 -0 -0 -0 -0 -0 -0 0 -0 -0 -0 -0 -0 -0 -0 -0 -0 -0 -0 -0 -0 -0 -0 -0 -0 0 0 0 0 -0 -0 -0 -0 0 0 0 -0 -0 -0 -0 -0 -0 -0 -0 -1 -1 -1 -1 -1 -1 -0 -0 -1 -1 -0 -0 0 nan
nan 0 0 0 0 0 0 0 0 0 0 -0 -0 -0 -0 -0 -0 -0 0 0 -0 0 0 -0 -0 -0 0 -0 -0 -0 -0 -0 -0 -0 -0 -0 0 0 0 0 0 -0 -0 -0 0 0 0 0 -0 0 0 0 -0 -0 -0 -1 -1 -1 -1 -1 -1 -1 -1 -0 -1 -1 -0 -0 nan
nan 1 1 0 0 0 0 0 0 0 0 -0 -0 -0 -0 -0 -0 -0 -0 0 0 0 0 -0 -0 -0 0 0 0 -0 -0 -0 -0 -0 -0 0 0 0 0 0 0 0 -0 -0 0 0 0 0 0 0 0 1 0 -0 -0 -0 -0 -1 -1 -1 -1 -1 -1 -1 -0 -0 -1 -0 nan
nan 1 1 1 0 0 0 0 0 0 -0 -0 -0 -0 -0 -0 -0 -0 -0 -0 0 0 0 0 -0 -0 -0 0 0 0 -0 -0 -0 -0 -0 -0 0 0 0 0 0 0 -0 -0 0 0 0 0 0 0 1 1 0 0 -0 -0 -0 -1 -1 -1 -1 -1 -1 -1 -1 -0 -1 -1 nan
nan nan nan nan nan nan nan nan nan nan nan nan nan nan nan nan nan nan nan nan nan nan nan nan nan nan nan nan nan nan nan nan nan nan nan nan nan nan nan nan nan nan nan nan nan nan nan nan nan nan nan nan nan nan nan nan nan nan nan nan nan nan nan nan nan nan nan nan nan
Wind_Speed
2 2 2 2 3 3 3 3 4 4 4 5 5 5 6 6 6 7 7 7 7 8 8 7 7 7 8 8 8 8 8 9 9 9 9 9 8 8 8 8 8 8 8 8 8 8 8 8 8 8 9 9 9 8 8 8 8 9 9 10 10 11 12 12 13 12 12 12 12
2 2 3 3 3 3 3 4 4 4 4 5 5 6 6 6 7 7 7 8 8 8 8 8 8 8 8 9 9 9 10 10 10 10 10 10 10 10 10 9 9 9 9 9 9 9 9 9 9 9 10 10 10 10 9 9 10 10 11 11 12 12 13 13 14 14 14 13 13
3 3 4 4 4 4 4 4 5 5 5 6 6 6 7 7 8 8 8 9 9 9 9 9 9 9 9 10 10 10 11 11 11 11 11 11 11 11 10 10 10 10 10 10 10 10 10 10 10 10 11 11 11 11 11 11 11 12 12 13 13 14 14 15 15 15 15 15 15
4 5 5 5 5 5 5 6 6 6 6 7 7 7 8 8 8 9 9 9 9 10 10 10 10 10 10 10 10 11 11 11 11 11 11 11 11 11 11 11 11 10 10 11 11 11 11 11 11 11 12 12 12 12 12 12 12 13 13 13 14 14 15 15 16 16 16 16 17
5 5 6 6 6 6 6 6 6 7 7 7 7 8 8 8 9 9 9 10 10 10 10 10 10 10 10 10 11 11 11 11 11 11 11 11 11 11 11 11 11 11 11 11 11 11 12 12 12 12 13 13 13 14 14 13 14 14 14 14 14 15 15 16 16 16 17 17 17
6 6 6 6 6 6 6 7 7 7 7 7 7 7 8 8 9 9 9 10 10 10 10 10 10 10 10 10 10 11 11 11 11 11 11 12 12 12 12 12 12 12 12 12 12 12 13 13 13 13 13 14 14 14 14 14 14 15 15 15 15 15 15 16 16 16 17 17 17
6 6 6 6 6 7 7 7 7 7 7 7 7 7 7 8 8 8 9 9 9 10 10 10 10 10 10 10 10 10 11 11 11 12 12 12 12 12 12 13 13 13 13 13 13 13 13 14 14 14 14 14 15 15 15 15 15 15 15 15 16 16 16 16 16 17 17 17 17
7 7 6 6 6 7 7 7 7 7 7 7 7 7 7 7 8 8 8 9 9 9 9 10 10 10 10 10 10 10 11 11 12 12 12 12 13 13 13 14 14 14 14 14 14 14 14 14 14 15 15 15 15 15 16 16 16 16 16 16 17 17 17 17 17 18 18 18 18
7 7 6 6 6 6 7 7 7 7 7 7 7 7 7 7 7 7 8 8 9 9 9 9 10 10 10 10 10 11 11 11 12 13 13 13 14 14 14 15 15 15 15 15 15 15 15 15 15 15 15 15 15 16 16 16 16 16 16 17 17 17 18 18 18 18 19 19 19
7 7 7 6 6 6 6 7 7 7 7 7 7 7 7 7 7 7 7 8 8 9 9 9 10 10 10 11 11 11 12 12 13 13 14 14 15 15 15 15 15 15 15 15 15 15 15 15 15 15 15 16 16 16 16 16 16 17 17 17 17 18 18 19 19 19 19 20 20
8 7 7 7 6 6 6 7 7 7 7 7 7 7 7 7 7 7 7 8 8 9 9 10 10 10 11 11 12 12 12 13 13 14 15 15 15 16 16 16 16 16 16 16 16 15 15 15 15 15 16 16 16 16 16 17 17 17 17 17 18 18 18 19 19 19 20 20 20
8 8 7 7 7 7 7 7 7 7 7 7 7 7 7 7 7 7 7 8 9 9 10 10 10 11 11 12 12 13 13 14 14 15 15 15 16 16 16 16 16 16 16 16 16 16 16 16 16 16 16 16 16 17 17 17 17 17 17 18 18 18 18 19 19 19 20 20 20
9 8 8 7 7 7 7 7 7 7 8 8 8 8 7 7 7 8 8 8 9 9 10 10 11 11 12 12 13 14 14 15 15 15 16 16 16 16 17 17 17 17 16 16 16 16 16 16 16 16 16 17 17 17 17 17 17 17 17 18 18 18 18 19 19 19 20 20 20
9 9 8 8 7 7 8 8 8 8 8 8 8 8 8 8 8 8 8 9 9 9 10 11 11 12 12 13 13 14 14 15 15 16 16 16 16 17 17 17 17 17 17 17 17 17 17 17 17 17 17 17 17 17 17 17 17 17 18 18 18 18 19 19 19 19 19 19 19
10 10 9 9 8 8 8 8 8 8 8 8 9 9 9 9 9 9 9 9 9 10 10 11 12 12 13 13 14 14 15 15 15 16 16 16 17 17 17 17 17 17 17 17 17 17 17 17 17 17 17 17 17 17 17 17 17 17 18 18 18 19 19 19 19 19 19 19 19
11 10 10 9 9 9 9 9 9 9 9 9 9 9 9 9 9 9 9 9 10 10 11 11 12 13 13 14 14 15 15 15 16 16 16 17 17 17 17 18 17 17 17 17 17 17 17 17 17 17 17 16 16 17 17 17 17 18 18 19 19 19 19 19 18 18 19 19 19
12 11 11 10 10 10 9 9 9 9 9 10 10 10 10 10 10 10 10 10 10 11 11 12 13 13 14 14 15 15 15 16 16 16 16 17 17 18 18 18 18 18 18 18 17 17 17 17 17 17 17 16 17 17 17 17 18 18 19 19 19 19 18 18 18 18 19 19 20
12 12 11 11 11 10 10 10 10 10 10 10 11 11 11 11 10 10 10 10 11 11 12 12 13 14 14 14 15 15 15 15 16 16 17 17 17 18 18 18 18 18 18 18 17 17 17 17 17 17 17 17 17 17 17 18 18 19 19 18 18 17 17 17 18 18 19 20 20
13 13 12 12 11 11 11 11 11 11 11 11 11 11 11 11 11 11 11 11 11 12 12 13 14 14 14 14 15 15 15 15 16 16 17 17 18 18 18 18 18 18 18 18 17 17 17 17 17 16 16 17 17 17 18 18 18 18 18 17 17 17 17 18 18 19 20 20 21
13 13 13 13 12 12 12 12 12 12 12 12 12 12 12 11 11 11 11 11 12 12 13 13 14 14 14 15 15 15 15 16 16 16 17 17 18 18 18 18 18 18 18 17 17 17 17 16 16 16 16 17 17 17 18 18 18 17 17 16 16 17 17 18 19 19 20 20 21
14 13 13 13 13 13 13 13 13 13 12 12 12 12 12 12 11 11 11 12 12 13 14 14 14 14 15 15 15 15 15 16 16 16 17 17 18 18 18 18 18 18 18 17 17 17 16 16 16 16 16 17 17 18 18 18 17 16 16 16 17 17 18 19 19 20 20 21 21
14 14 14 14 14 13 13 13 13 13 13 13 13 12 12 12 12 12 12 13 13 14 14 14 15 15 15 15 15 15 15 16 16 16 17 17 17 18 18 18 18 18 17 17 17 16 16 16 16 16 16 17 17 17 17 17 16 16 16 16 17 18 18 19 20 20 21 21 21
14 14 14 14 14 14 14 14 14 14 13 13 13 12 12 12 12 13 13 13 14 14 14 15 15 15 15 15 15 15 15 15 16 16 17 17 17 18 18 18 18 17 17 16 16 16 16 16 16 16 16 17 17 17 16 16 16 16 16 17 17 18 19 19 20 21 21 21 21
14 14 14 14 14 14 14 14 14 14 13 13 13 13 13 13 13 13 14 14 14 14 15 15 15 15 15 15 15 15 15 15 16 16 17 17 17 18 18 18 17 17 16 16 16 16 15 15 16 16 16 17 17 16 16 16 17 17 17 18 18 18 19 20 20 21 21 21 21
14 14 14 15 15 15 15 15 14 14 13 13 13 13 13 14 14 14 14 15 15 15 15 15 15 15 15 15 15 15 15 15 15 16 16 17 17 17 17 17 17 16 16 15 15 15 15 15 16 16 17 17 16 16 17 17 17 17 18 18 18 19 19 20 20 20 20 20 20
14 14 14 15 15 15 15 14 14 14 14 14 14 14 14 14 14 14 15 15 14 14 14 15 15 15 15 15 15 15 15 15 15 16 16 17 17 17 17 17 16 16 15 15 15 15 14 15 15 16 16 17 17 17 17 17 17 18 18 18 18 19 20 20 20 20 20 19 19
14 14 14 15 15 15 15 14 14 14 14 14 14 14 14 14 15 15 14 14 14 14 14 14 14 14 15 15 15 15 15 15 15 16 16 16 17 17 17 16 15 15 15 14 14 14 14 14 15 15 16 16 16 17 17 17 17 18 18 18 19 19 20 20 20 19 19 18 18
14 14 15 15 15 15 15 15 15 15 15 15 15 15 15 15 15 14 14 14 14 14 14 14 14 14 14 14 14 15 15 15 15 16 16 16 16 16 16 15 15 14 14 14 14 14 14 14 15 15 15 16 16 16 17 17 17 17 18 18 19 19 19 19 19 18 18 17 17
14 15 15 15 15 15 15 15 15 15 15 15 15 15 15 14 14 14 14 14 14 14 14 14 14 14 14 14 14 15 15 15 15 16 16 16 16 16 15 15 14 14 14 14 14 14 14 14 15 15 15 15 16 16 16 16 17 17 18 18 18 18 18 18 17 17 17 17 17
15 15 15 15 15 15 15 15 15 15 15 15 15 15 14 14 14 14 14 14 14 14 14 14 14 14 14 14 14 15 15 15 15 15 16 16 16 15 15 14 14 14 14 14 14 14 14 14 15 15 15 15 15 16 16 16 17 17 18 18 17 17 17 17 17 17 17 17 17
15 16 16 16 15 15 15 15 15 15 15 15 15 14 14 14 14 14 14 14 14 14 14 14 14 14 14 14 14 15 15 15 15 15 15 15 15 15 15 14 14 14 14 14 14 14 14 15 15 15 15 15 15 16 16 16 17 17 17 17 16 16 16 17 17 18 18 18 18
16 16 16 16 16 15 15 15 15 15 15 14 14 14 14 14 14 14 14 14 14 14 14 14 14 14 14 14 14 14 15 15 15 15 15 15 15 14 14 14 14 14 14 14 14 14 14 15 15 15 15 15 15 15 16 16 16 16 16 16 16 16 17 18 18 18 18 18 19
16 16 16 16 16 15 15 15 14 14 14 14 14 14 14 14 14 14 14 14 14 14 14 14 14 14 14 14 14 15 15 15 15 15 15 15 14 14 14 14 14 14 14 14 14 14 14 15 15 15 15 15 15 15 15 16 16 16 15 15 16 16 17 18 18 18 18 19 19
16 16 16 16 15 15 15 15 14 14 14 14 14 14 14 14 14 14 14 14 14 14 14 14 14 14 14 14 14 14 15 15 15 15 15 14 14 14 14 14 14 14 14 14 14 14 15 15 15 15 15 15 15 15 15 15 15 15 15 15 16 17 18 18 18 18 19 19 20
16 16 16 15 15 15 15 14 14 14 14 14 14 14 14 14 14 14 15 15 15 14 14 14 14 14 14 14 14 14 15 15 15 15 14 14 13 13 13 14 14 14 14 14 14 15 15 15 15 15 15 15 15 14 14 14 14 15 15 16 17 18 18 18 19 19 19 20 20
15 15 15 15 15 15 15 14 14 14 14 14 14 14 15 15 15 15 15 15 15 14 14 14 14 14 14 14 14 14 15 15 15 14 14 14 13 13 13 14 14 14 14 14 15 15 15 15 15 15 15 14 14 14 14 14 14 15 15 16 17 18 18 19 19 19 20 20 20
15 15 15 15 15 15 14 14 14 14 15 15 15 15 15 15 15 15 15 15 14 14 14 14 14 14 14 14 14 15 15 15 14 14 14 14 13 13 13 14 14 14 15 15 15 15 15 15 15 14 14 13 13 13 13 14 14 15 16 16 17 18 19 19 19 20 20 21 21
15 15 15 15 15 15 14 15 15 15 15 15 15 15 15 15 15 15 15 15 14 14 14 14 14 14 14 14 14 15 15 15 14 14 14 14 13 13 13 14 14 15 15 15 15 15 15 15 15 14 13 12 12 12 13 13 14 15 16 17 18 19 19 19 20 20 21 21 21
15 15 15 15 15 15 15 15 15 15 15 15 15 16 15 15 15 15 15 15 15 15 14 14 14 14 14 14 14 15 15 15 14 14 14 14 14 14 14 14 14 15 15 15 15 15 15 15 14 13 12 11 11 11 12 13 14 15 16 17 18 19 19 19 20 21 21 22 22
16 15 15 15 15 15 15 15 15 15 15 16 16 16 16 16 15 15 15 15 15 15 15 14 14 14 14 14 14 14 15 15 14 14 14 14 14 14 14 14 15 15 15 15 15 15 15 15 14 13 11 10 10 11 12 13 14 15 17 17 18 19 20 20 21 21 22 22 23
16 16 16 16 15 15 15 16 16 16 16 16 16 16 16 16 16 16 15 15 15 15 15 15 14 14 14 14 14 14 14 15 15 14 14 14 14 14 14 15 15 15 15 15 15 15 15 15 14 12 11 9 10 10 11 12 14 15 17 17 18 19 20 21 21 22 22 23 23
Wind_Direction
308 316 320 322 323 325 330 334 338 338 339 339 339 339 338 337 337 336 335 335 335 336 337 336 335 333 330 327 326 325 325 324 324 323 321 319 318 317 315 314 313 312 311 311 310 309 309 308 308 307 306 306 308 311 314 313 310 309 308 307 307 306 307 309 310 310 309 308 306
297 303 306 309 310 313 315 319 322 324 324 325 326 327 328 327 327 327 327 327 327 327 327 326 325 325 324 323 322 322 322 322 322 321 319 318 317 315 314 313 312 311 310 309 308 307 306 306 306 306 307 307 308 310 312 313 312 311 311 311 310 310 310 311 311 310 309 308 306
294 297 299 300 302 304 306 309 311 314 316 316 316 317 318 318 319 319 320 321 320 319 320 321 321 322 323 323 322 321 321 320 320 319 318 318 316 315 314 314 313 312 310 309 307 307 306 306 306 307 308 309 310 310 311 311 311 310 309 308 308 308 308 308 307 306 306 304 303
294 296 298 300 302 303 305 306 308 308 309 310 311 312 313 313 314 315 316 316 316 317 318 320 321 322 323 323 323 322 320 319 318 318 317 317 317 316 316 315 314 312 311 310 309 309 309 310 310 311 311 312 312 311 311 311 310 308 307 306 306 305 305 304 304 303 303 302 301
294 296 298 300 302 302 303 304 304 305 305 306 308 310 310 311 312 313 314 315 317 318 319 320 321 322 323 323 322 321 319 318 317 316 316 316 316 316 316 315 314 313 312 312 312 312 313 313 314 314 314 313 312 311 311 311 310 308 307 306 305 304 303 303 302 302 301 301 300
296 298 298 299 300 302 303 303 303 304 304 305 307 308 310 311 313 315 316 317 318 318 318 319 320 321 321 321 320 319 317 317 316 316 316 317 317 316 316 315 315 315 315 315 315 315 315 315 315 314 314 313 312 311 311 311 310 309 308 307 306 305 304 303 303 303 303 302 302
296 297 299 299 301 303 303 304 304 304 304 305 305 306 308 311 313 315 316 316 316 317 317 318 318 319 319 318 318 317 317 316 316 317 317 318 318 318 318 318 318 318 319 319 318 317 316 315 315 313 312 312 311 311 311 311 311 310 310 309 308 308 307 307 307 307 308 308 308
295 296 298 299 301 303 304 304 305 305 304 304 304 305 306 309 312 313 313 313 314 315 316 316 316 316 316 316 316 317 317 318 318 319 320 321 321 321 322 322 322 322 321 320 319 318 316 315 314 313 312 312 311 311 312 312 312 312 312 312 312 312 312 312 312 313 313 314 314
292 293 295 297 299 301 303 303 304 303 302 301 301 302 304 306 308 310 311 312 313 313 313 313 313 314 314 315 317 319 320 321 322 323 324 325 325 326 325 325 324 323 322 320 319 317 315 314 313 313 312 312 312 312 312 313 313 314 314 314 315 315 315 315 315 316 316 316 315
289 290 292 294 295 297 299 300 301 300 298 297 298 299 302 303 306 308 309 310 311 311 311 311 312 314 315 317 319 321 323 325 326 327 328 328 328 327 326 324 323 321 320 319 317 316 315 314 313 313 313 313 313 313 314 315 315 316 316 316 316 316 316 316 316 316 316 315 315
286 287 288 290 292 293 294 295 295 295 294 293 294 296 298 301 304 306 308 309 309 309 310 311 313 315 318 320 323 325 327 329 329 330 330 329 327 326 324 322 321 320 318 317 316 315 314 314 314 313 313 314 314 315 315 316 316 316 316 316 315 315 315 314 314 314 314 313 312
282 283 284 285 287 288 289 290 290 290 289 290 292 294 296 299 301 304 305 306 307 308 310 313 315 318 321 324 326 328 330 331 331 330 329 327 325 323 321 320 319 318 317 316 316 315 315 315 314 315 315 315 315 315 315 315 315 314 314 313 313 312 312 311 311 311 310 309 308
279 279 279 280 281 283 284 284 284 285 286 287 290 292 295 297 299 300 303 304 306 308 312 315 318 321 324 327 329 330 330 330 329 328 326 324 323 321 319 318 317 317 316 316 315 315 315 315 315 315 315 315 314 314 314 313 312 311 311 309 309 309 308 308 308 307 306 306 305
276 276 276 276 277 278 278 279 280 282 284 287 289 291 294 295 297 299 301 303 306 310 314 318 321 324 327 328 328 328 328 327 326 325 323 321 320 318 317 317 316 316 315 315 314 314 314 314 313 313 313 312 312 311 310 310 309 308 307 306 306 305 305 305 304 303 303 303 303
275 275 274 274 274 274 275 276 279 281 283 286 288 290 291 293 295 297 301 304 308 312 317 320 323 325 326 326 326 325 324 324 322 321 320 319 317 316 316 315 315 314 314 313 313 313 312 311 311 310 309 309 308 308 307 306 305 305 304 304 304 303 303 302 301 300 301 302 302
275 274 274 274 273 274 274 276 278 281 283 284 286 288 289 292 294 297 301 306 311 315 319 321 322 323 324 323 323 322 321 320 319 318 317 316 315 314 314 314 313 313 312 312 311 310 309 309 308 307 306 306 306 305 305 304 303 303 303 302 302 301 300 299 299 299 300 300 302
275 275 275 275 274 275 276 277 279 280 282 283 285 286 288 291 295 298 303 308 313 317 319 320 320 320 319 319 318 318 317 316 315 314 314 313 313 313 312 312 312 311 311 310 309 308 307 306 305 305 304 304 304 303 303 303 302 302 302 301 300 299 298 298 299 299 300 301 303
276 276 276 276 277 277 277 279 280 280 281 283 284 286 288 291 295 300 305 310 314 317 318 317 317 316 315 314 313 312 312 312 312 312 312 312 312 311 312 311 310 309 308 307 306 305 305 304 304 303 303 303 303 303 302 302 302 301 301 300 299 299 300 300 301 301 302 303 304
276 277 277 278 278 279 279 280 281 281 282 283 284 286 288 292 296 301 306 310 313 314 314 312 311 310 309 308 308 308 309 310 310 311 311 311 311 311 310 309 308 307 306 305 304 304 303 303 303 303 303 303 303 302 302 301 301 300 300 300 300 301 303 303 304 304 305 305 307
276 277 278 279 279 280 280 281 281 282 282 283 284 286 288 292 297 302 306 308 309 309 308 306 305 304 304 304 305 306 307 309 310 311 311 310 310 309 308 307 306 305 304 303 303 303 302 302 302 302 303 302 302 302 301 300 300 301 301 303 303 304 305 306 306 307 307 308 309
275 277 278 279 280 280 280 280 280 281 281 282 284 286 289 292 297 301 302 303 303 302 302 301 300 301 302 303 304 306 308 309 310 310 310 309 308 307 306 305 304 304 303 302 302 302 302 302 302 302 302 302 301 301 300 300 301 303 304 305 306 307 307 307 308 309 309 310 311
275 276 278 279 279 279 279 279 279 279 280 281 283 285 289 292 295 297 297 298 297 297 297 298 298 299 301 303 304 306 308 309 310 310 309 308 306 305 304 303 302 302 302 301 301 301 301 302 302 302 302 301 300 300 300 302 304 306 307 307 307 308 308 309 309 310 311 311 311
274 276 277 277 278 278 278 278 277 278 279 280 283 285 288 290 292 293 293 293 294 294 295 296 298 300 301 303 305 307 308 309 309 308 307 306 304 303 302 301 301 301 301 301 301 301 302 302 302 302 301 301 300 301 303 306 308 309 308 308 308 309 309 310 311 311 312 312 311
274 275 276 276 277 277 276 276 276 277 278 280 282 284 286 287 288 289 290 291 292 293 295 297 298 300 302 303 305 306 307 308 307 306 305 303 302 301 300 300 300 300 300 300 301 301 302 302 302 303 302 302 303 306 308 310 310 310 309 309 310 311 311 312 313 313 312 312 312
273 274 274 275 275 275 275 275 276 277 278 280 281 283 284 285 286 288 289 290 292 294 296 297 299 300 302 303 305 306 306 306 305 303 302 301 300 299 299 299 299 300 300 301 302 302 303 304 304 304 305 306 308 309 311 311 311 309 309 310 311 312 313 313 313 313 313 313 312
271 272 273 274 274 275 275 275 276 277 278 279 280 281 282 284 285 287 288 290 292 294 296 297 299 300 301 302 304 304 304 303 302 301 300 299 298 297 297 298 299 300 300 301 302 303 305 306 306 307 308 309 310 310 310 310 309 309 310 312 313 314 314 314 314 313 314 314 314
270 271 272 273 274 274 275 276 277 277 277 278 279 280 281 283 284 286 288 290 292 294 295 297 298 299 300 301 302 302 301 301 300 298 297 297 296 296 296 297 299 300 301 302 304 305 306 307 308 309 310 310 309 308 308 307 308 309 312 314 315 315 314 315 315 315 315 316 317
271 271 272 273 274 275 275 276 277 277 277 277 278 279 280 282 284 286 288 289 291 293 294 296 297 298 299 299 299 298 298 298 297 296 296 295 295 295 296 297 299 301 303 304 306 307 308 309 310 310 309 308 307 306 306 307 308 312 314 316 315 315 315 315 316 318 319 320 321
272 272 273 273 274 275 275 276 276 276 276 276 277 278 279 281 283 285 287 289 291 292 293 294 296 297 297 297 296 296 296 295 295 295 294 294 294 295 296 298 301 303 305 306 308 309 310 311 310 309 308 306 304 305 306 308 311 314 315 315 315 315 316 319 322 325 327 327 328
271 272 272 272 273 273 274 274 273 273 274 274 275 277 279 281 283 285 287 288 290 291 292 293 294 294 294 294 294 294 294 294 294 294 294 293 294 295 297 300 303 305 307 309 310 311 311 311 310 308 306 304 303 305 308 310 312 314 315 314 314 316 321 326 330 333 335 335 334
269 270 270 270 271 271 271 271 271 272 272 273 274 276 279 281 283 285 286 288 289 290 291 291 292 292 292 292 293 293 293 293 293 293 293 293 294 296 299 302 305 307 309 310 311 311 311 310 309 307 305 303 304 306 309 311 312 313 312 312 315 322 329 334 337 338 339 339 338
267 267 267 267 268 268 268 269 270 271 272 273 274 276 279 281 283 284 285 286 287 288 288 289 289 290 291 292 292 293 293 293 292 292 293 293 295 298 301 304 307 309 310 311 311 310 310 309 308 306 305 304 305 307 309 311 311 311 312 314 320 328 334 337 339 340 341 341 340
265 265 266 266 266 267 268 269 270 271 272 274 275 277 279 281 282 283 284 284 285 285 286 287 288 290 290 291 292 292 291 291 291 292 293 294 296 300 303 307 309 310 310 310 310 309 308 308 307 306 305 305 306 308 310 311 312 313 315 319 325 331 335 337 339 340 341 341 341
264 265 265 265 266 267 269 270 271 272 273 274 276 277 278 280 281 281 282 282 283 283 285 286 287 288 289 290 290 290 290 290 290 291 292 294 297 301 305 309 309 309 309 309 308 307 307 307 306 306 306 307 309 311 313 314 315 317 320 323 327 330 333 335 337 339 340 341 340
264 265 265 266 267 268 269 271 272 273 274 275 276 277 277 278 278 279 279 280 281 283 284 285 286 287 287 288 288 288 288 288 289 291 292 295 299 303 307 309 308 308 308 308 307 306 307 307 306 306 306 308 311 314 316 317 318 319 321 323 326 329 331 334 337 338 340 340 339
264 265 266 266 268 269 270 272 273 274 274 275 275 275 276 276 276 277 277 279 280 282 283 284 285 286 287 287 287 287 288 289 290 292 294 296 299 303 306 308 307 307 306 306 305 305 306 306 306 306 308 311 315 318 319 319 318 318 320 322 324 327 331 334 336 338 339 339 338
266 266 267 268 269 270 271 272 273 274 274 274 274 274 274 274 274 275 276 278 279 281 282 284 285 286 287 288 288 288 289 290 291 292 294 296 299 302 304 306 306 305 305 304 304 305 306 306 306 307 309 314 319 322 321 319 317 317 318 320 323 326 330 333 335 336 337 337 338
267 268 268 269 270 271 272 273 273 273 273 272 272 272 272 272 273 273 275 276 278 280 282 283 284 285 286 286 288 288 289 290 290 291 293 295 298 301 304 305 304 303 303 303 303 304 305 306 306 307 311 317 323 324 321 317 315 314 316 318 322 326 330 332 333 334 335 336 337
269 269 270 270 271 272 273 273 273 273 272 271 271 270 271 271 272 272 273 275 277 278 280 282 282 283 284 285 286 287 288 289 290 291 292 294 297 300 303 304 304 303 302 302 303 303 304 305 305 307 312 319 323 321 317 314 312 312 313 317 321 325 329 331 332 332 333 335 337
270 270 271 271 272 272 273 273 272 272 271 270 270 269 269 269 270 271 272 274 275 277 278 280 281 282 283 284 285 286 287 289 290 291 292 294 297 300 302 304 304 302 302 301 302 302 303 304 305 307 312 319 322 319 314 310 309 310 312 316 320 323 326 329 330 331 333 334 336
271 271 271 271 272 272 272 272 272 271 271 270 269 269 268 269 269 270 271 272 274 275 276 278 280 281 282 283 284 285 287 288 290 291 292 294 297 300 302 303 303 302 301 301 301 301 302 303 305 307 312 318 320 317 312 309 308 308 311 316 319 321 323 326 329 331 333 334 334
Height
1517 1516 1516 1516 1515 1515 1514 1514 1514 1514 1513 1513 1513 1512 1512 1512 1511 1511 1510 1510 1510 1509 1509 1509 1508 1508 1507 1507 1507 1506 1506 1505 1505 1505 1504 1504 1504 1503 1502 1502 1501 1501 1500 1499 1499 1499 1498 1498 1497 1497 1496 1495 1495 1494 1494 1493 1493 1492 1491 1491 1490 1490 1489 1488 1488 1487 1487 1486 1485
1516 1516 1515 1515 1515 1514 1514 1514 1513 1513 1513 1512 1512 1512 1511 1511 1510 1510 1510 1509 1509 1509 1509 1508 1508 1507 1507 1506 1506 1506 1505 1505 1504 1504 1504 1503 1503 1502 1502 1501 1501 1500 1499 1499 1499 1498 1498 1497 1496 1496 1495 1494 1494 1493 1493 1492 1491 1491 1490 1489 1489 1489 1488 1487 1486 1486 1485 1485 1484
1516 1515 1515 1514 1514 1514 1513 1513 1513 1512 1512 1512 1511 1511 1510 1510 1510 1509 1509 1509 1509 1508 1508 1507 1507 1506 1506 1505 1505 1505 1504 1504 1504 1503 1503 1502 1502 1501 1501 1500 1500 1499 1499 1498 1498 1497 1497 1496 1495 1495 1494 1493 1493 1492 1492 1491 1490 1490 1489 1489 1488 1487 1487 1486 1485 1484 1484 1483 1483
1515 1514 1514 1514 1513 1513 1512 1512 1512 1511 1511 1511 1510 1510 1510 1509 1509 1509 1508 1508 1508 1507 1507 1506 1506 1506 1505 1505 1504 1504 1504 1503 1503 1503 1502 1502 1501 1501 1500 1500 1499 1499 1498 1498 1497 1496 1496 1495 1494 1494 1493 1492 1491 1491 1490 1490 1489 1489 1488 1487 1487 1486 1485 1485 1484 1483 1483 1482 1481
1514 1514 1513 1513 1512 1512 1512 1511 1511 1510 1510 1510 1509 1509 1509 1509 1508 1508 1508 1507 1507 1506 1506 1505 1505 1505 1504 1504 1504 1503 1503 1503 1502 1502 1501 1501 1500 1500 1499 1499 1499 1498 1497 1497 1496 1495 1494 1494 1493 1492 1492 1491 1490 1490 1489 1489 1488 1488 1487 1486 1486 1485 1484 1484 1483 1482 1481 1480 1480
1513 1513 1512 1512 1512 1511 1511 1510 1510 1509 1509 1509 1509 1508 1508 1508 1507 1507 1507 1506 1506 1505 1505 1505 1504 1504 1504 1504 1503 1503 1502 1502 1502 1501 1501 1500 1499 1499 1499 1498 1497 1497 1496 1495 1494 1494 1493 1492 1492 1491 1490 1490 1489 1489 1488 1487 1487 1486 1486 1485 1484 1484 1483 1482 1481 1481 1480 1479 1478
1512 1512 1511 1511 1511 1510 1510 1509 1509 1509 1508 1508 1508 1507 1507 1507 1506 1506 1506 1505 1505 1505 1504 1504 1504 1503 1503 1503 1503 1502 1502 1501 1501 1500 1500 1499 1499 1498 1497 1497 1496 1495 1495 1494 1493 1493 1492 1491 1491 1490 1489 1489 1488 1487 1487 1486 1485 1485 1484 1484 1483 1482 1481 1480 1479 1479 1478 1477 1476
1511 1511 1511 1510 1510 1509 1509 1509 1508 1508 1508 1507 1507 1507 1506 1506 1506 1505 1505 1505 1504 1504 1504 1503 1503 1503 1503 1502 1502 1501 1501 1500 1500 1499 1499 1498 1497 1497 1496 1495 1494 1494 1493 1493 1492 1491 1491 1490 1489 1489 1488 1488 1487 1486 1485 1485 1484 1483 1483 1482 1481 1480 1479 1479 1478 1477 1476 1475 1474
1511 1510 1510 1509 1509 1509 1508 1508 1508 1507 1507 1507 1506 1506 1505 1505 1505 1504 1504 1504 1504 1503 1503 1503 1503 1502 1502 1501 1501 1500 1500 1499 1499 1498 1497 1496 1496 1495 1494 1494 1493 1493 1492 1492 1491 1491 1490 1489 1489 1488 1487 1487 1486 1485 1484 1484 1483 1482 1481 1480 1479 1479 1478 1477 1476 1475 1474 1474 1473
1510 1509 1509 1509 1508 1508 1507 1507 1507 1506 1506 1506 1505 1505 1505 1504 1504 1504 1504 1503 1503 1503 1502 1502 1502 1501 1501 1500 1500 1499 1499 1498 1497 1496 1495 1495 1494 1494 1493 1493 1492 1492 1491 1491 1490 1490 1489 1489 1488 1487 1486 1485 1485 1484 1483 1482 1481 1481 1480 1479 1478 1477 1476 1476 1475 1474 1474 1473 1472
1509 1509 1508 1508 1507 1507 1506 1506 1506 1506 1505 1505 1505 1504 1504 1504 1503 1503 1503 1502 1502 1502 1502 1501 1501 1500 1500 1499 1498 1498 1497 1496 1495 1495 1494 1494 1493 1493 1493 1492 1492 1491 1491 1490 1489 1489 1488 1487 1487 1486 1485 1484 1484 1483 1482 1481 1480 1479 1479 1478 1477 1476 1475 1475 1474 1473 1473 1472 1471
1508 1508 1507 1507 1506 1506 1506 1505 1505 1505 1505 1504 1504 1504 1503 1503 1502 1502 1502 1501 1501 1501 1500 1500 1499 1499 1498 1497 1497 1496 1495 1494 1494 1494 1493 1493 1493 1492 1492 1491 1491 1490 1490 1489 1489 1488 1487 1486 1485 1485 1484 1483 1482 1482 1481 1480 1479 1479 1478 1477 1476 1475 1475 1474 1473 1472 1472 1471 1470
1508 1507 1507 1506 1506 1505 1505 1504 1504 1504 1504 1504 1503 1503 1502 1502 1502 1501 1501 1500 1500 1500 1499 1499 1498 1497 1497 1496 1495 1494 1494 1494 1493 1493 1493 1492 1492 1492 1491 1491 1490 1489 1489 1488 1488 1487 1486 1485 1484 1484 1483 1482 1481 1481 1480 1479 1479 1478 1477 1476 1475 1475 1474 1473 1472 1472 1471 1470 1469
1507 1506 1506 1505 1505 1504 1504 1504 1503 1503 1503 1503 1502 1502 1501 1501 1501 1500 1500 1499 1499 1498 1498 1497 1496 1496 1495 1494 1494 1494 1493 1493 1493 1492 1492 1492 1491 1491 1490 1490 1489 1489 1488 1487 1487 1486 1485 1484 1484 1483 1482 1481 1481 1480 1479 1479 1478 1477 1476 1475 1474 1474 1473 1472 1471 1470 1470 1469 1468
1506 1505 1505 1504 1504 1504 1503 1503 1502 1502 1502 1501 1501 1501 1501 1500 1500 1499 1499 1498 1497 1497 1496 1495 1495 1494 1494 1494 1493 1493 1493 1492 1492 1492 1491 1491 1490 1490 1489 1489 1489 1488 1487 1486 1485 1485 1484 1484 1483 1482 1481 1481 1480 1479 1479 1478 1477 1476 1475 1474 1474 1473 1472 1471 1470 1469 1469 1468 1466
1505 1504 1504 1503 1503 1502 1502 1502 1501 1501 1501 1500 1500 1500 1500 1499 1499 1498 1498 1497 1496 1495 1495 1494 1494 1494 1493 1493 1493 1492 1492 1492 1491 1491 1491 1490 1490 1489 1489 1488 1487 1487 1486 1485 1485 1484 1484 1483 1482 1481 1481 1480 1479 1479 1478 1477 1476 1475 1474 1474 1473 1472 1471 1470 1469 1468 1467 1466 1465
1504 1503 1503 1502 1502 1501 1501 1500 1500 1500 1500 1499 1499 1499 1499 1498 1498 1497 1496 1495 1495 1494 1494 1493 1493 1493 1493 1493 1492 1492 1491 1491 1491 1490 1490 1489 1489 1488 1488 1487 1486 1486 1485 1484 1484 1483 1483 1482 1481 1481 1480 1479 1478 1478 1477 1476 1475 1474 1473 1472 1471 1470 1469 1469 1468 1467 1466 1465 1464
1503 1502 1502 1501 1501 1500 1500 1499 1499 1499 1499 1499 1498 1498 1498 1497 1496 1496 1495 1494 1494 1493 1493 1493 1493 1492 1492 1492 1492 1491 1491 1490 1490 1489 1489 1488 1488 1487 1486 1486 1485 1485 1484 1484 1483 1482 1482 1481 1480 1480 1479 1478 1477 1476 1476 1475 1474 1473 1472 1471 1470 1469 1468 1467 1466 1465 1464 1463 1462
1501 1501 1500 1500 1500 1499 1499 1499 1498 1498 1498 1497 1497 1497 1496 1496 1495 1494 1494 1493 1493 1492 1492 1492 1492 1492 1492 1492 1491 1491 1490 1490 1489 1488 1488 1487 1486 1486 1485 1485 1484 1484 1483 1483 1482 1481 1481 1480 1479 1479 1478 1477 1476 1475 1474 1474 1473 1472 1471 1470 1469 1468 1467 1466 1465 1464 1463 1462 1461
1500 1499 1499 1499 1499 1498 1498 1498 1497 1497 1497 1496 1496 1496 1495 1494 1494 1493 1493 1492 1492 1492 1492 1492 1492 1492 1491 1491 1490 1490 1489 1489 1488 1487 1486 1486 1485 1485 1484 1484 1484 1483 1482 1482 1481 1480 1480 1479 1478 1478 1477 1476 1475 1474 1473 1472 1471 1470 1469 1469 1468 1467 1465 1464 1464 1463 1462 1461 1459
1499 1498 1498 1498 1497 1497 1497 1496 1496 1496 1496 1495 1495 1494 1494 1493 1493 1492 1492 1492 1492 1492 1492 1491 1491 1491 1490 1490 1489 1489 1488 1487 1486 1486 1485 1485 1484 1484 1484 1483 1483 1482 1481 1481 1480 1479 1479 1478 1477 1476 1475 1475 1474 1473 1472 1471 1470 1469 1468 1467 1466 1465 1464 1463 1462 1461 1460 1459 1458
1497 1497 1497 1496 1496 1496 1496 1495 1495 1495 1494 1494 1494 1493 1493 1492 1492 1491 1491 1491 1491 1491 1491 1491 1490 1490 1489 1489 1488 1487 1487 1486 1485 1485 1484 1484 1483 1483 1483 1482 1482 1481 1480 1480 1479 1478 1478 1477 1476 1475 1474 1474 1473 1472 1471 1470 1469 1468 1467 1466 1465 1464 1463 1462 1461 1459 1459 1458 1456
1496 1496 1495 1495 1495 1495 1494 1494 1494 1494 1494 1493 1493 1492 1492 1491 1491 1491 1491 1491 1490 1490 1490 1489 1489 1489 1488 1487 1487 1486 1485 1484 1484 1484 1483 1483 1482 1482 1481 1481 1480 1480 1479 1479 1478 1477 1476 1475 1475 1474 1473 1472 1471 1470 1469 1468 1467 1466 1465 1464 1463 1462 1461 1460 1459 1458 1457 1456 1455
1495 1494 1494 1494 1494 1494 1494 1493 1493 1493 1492 1492 1491 1491 1491 1490 1490 1490 1490 1490 1489 1489 1489 1488 1488 1487 1486 1486 1485 1484 1484 1484 1483 1483 1482 1482 1481 1481 1480 1480 1479 1479 1478 1477 1477 1476 1475 1474 1473 1473 1472 1471 1470 1469 1468 1467 1466 1465 1464 1463 1462 1461 1460 1459 1458 1457 1456 1454 1454
1493 1493 1493 1493 1493 1493 1492 1492 1492 1491 1491 1491 1490 1490 1490 1490 1489 1489 1489 1489 1488 1488 1487 1487 1486 1486 1485 1484 1484 1483 1483 1482 1482 1482 1481 1480 1480 1480 1479 1479 1478 1477 1477 1476 1475 1474 1474 1473 1472 1471 1470 1469 1469 1468 1466 1465 1464 1464 1463 1461 1460 1459 1458 1457 1456 1455 1454 1453 1452
1492 1492 1492 1492 1491 1491 1491 1491 1490 1490 1490 1489 1489 1489 1489 1489 1489 1488 1488 1487 1487 1487 1486 1485 1485 1484 1484 1483 1483 1482 1482 1481 1481 1480 1480 1479 1479 1479 1478 1477 1477 1476 1475 1475 1474 1473 1472 1472 1471 1470 1469 1468 1467 1466 1465 1464 1464 1463 1461 1460 1459 1458 1457 1456 1455 1454 1453 1452 1451
1491 1490 1490 1490 1490 1490 1489 1489 1489 1489 1489 1489 1488 1488 1488 1488 1487 1487 1487 1486 1486 1485 1485 1484 1484 1483 1483 1482 1481 1481 1481 1480 1480 1479 1479 1479 1478 1477 1477 1476 1475 1475 1474 1474 1473 1472 1471 1470 1469 1469 1468 1467 1466 1465 1464 1463 1462 1461 1460 1459 1458 1457 1456 1454 1454 1453 1452 1451 1449
1489 1489 1489 1489 1488 1488 1488 1488 1488 1488 1488 1487 1487 1487 1487 1486 1486 1486 1485 1485 1484 1484 1484 1483 1482 1482 1481 1481 1480 1480 1479 1479 1479 1478 1478 1477 1477 1476 1475 1475 1474 1474 1473 1472 1471 1471 1470 1469 1468 1467 1466 1465 1465 1464 1463 1462 1461 1459 1459 1457 1456 1455 1454 1453 1452 1451 1450 1449 1448
1488 1488 1487 1487 1487 1487 1487 1487 1487 1486 1486 1486 1486 1486 1486 1485 1485 1484 1484 1484 1483 1483 1482 1482 1481 1481 1480 1480 1479 1479 1479 1478 1478 1477 1477 1476 1475 1475 1474 1474 1473 1472 1472 1471 1470 1469 1469 1468 1467 1466 1465 1464 1464 1463 1462 1461 1459 1458 1457 1456 1455 1454 1453 1452 1451 1450 1449 1448 1447
1486 1486 1486 1486 1486 1485 1485 1485 1485 1485 1485 1485 1485 1484 1484 1484 1484 1483 1483 1482 1482 1481 1481 1480 1480 1480 1479 1479 1478 1478 1477 1477 1476 1476 1475 1475 1474 1474 1473 1472 1472 1471 1470 1469 1469 1468 1467 1466 1466 1465 1464 1463 1463 1461 1460 1459 1458 1457 1456 1455 1454 1453 1452 1451 1450 1449 1448 1446 1445
1485 1485 1485 1485 1484 1484 1484 1484 1484 1484 1484 1484 1484 1483 1483 1483 1482 1482 1481 1481 1480 1480 1480 1479 1479 1479 1478 1478 1477 1477 1476 1476 1475 1475 1474 1474 1473 1472 1472 1471 1470 1470 1469 1468 1467 1467 1466 1465 1465 1464 1463 1462 1461 1460 1459 1458 1457 1456 1455 1454 1453 1452 1451 1450 1449 1448 1446 1445 1444
1484 1484 1484 1484 1484 1483 1483 1483 1483 1483 1483 1482 1482 1482 1481 1481 1481 1480 1480 1479 1479 1479 1479 1478 1478 1477 1477 1476 1476 1475 1475 1474 1474 1474 1473 1473 1472 1471 1470 1470 1469 1468 1468 1467 1466 1465 1465 1464 1464 1463 1462 1461 1460 1459 1458 1457 1456 1455 1454 1453 1452 1451 1449 1449 1447 1446 1445 1444 1443
1483 1483 1483 1482 1482 1482 1482 1482 1481 1481 1481 1481 1480 1480 1480 1480 1479 1479 1479 1479 1478 1478 1477 1477 1477 1476 1476 1475 1475 1474 1474 1473 1473 1472 1472 1471 1471 1470 1469 1469 1468 1467 1466 1466 1465 1464 1464 1463 1462 1461 1460 1459 1458 1457 1456 1455 1454 1454 1452 1451 1450 1449 1449 1448 1446 1445 1444 1443 1442
1482 1481 1481 1481 1481 1480 1480 1480 1480 1479 1479 1479 1479 1479 1479 1478 1478 1478 1478 1477 1477 1477 1476 1476 1475 1475 1474 1474 1474 1473 1473 1472 1472 1471 1471 1470 1469 1469 1468 1467 1466 1466 1465 1464 1464 1463 1463 1462 1461 1460 1459 1458 1457 1456 1455 1454 1453 1452 1451 1450 1449 1448 1447 1446 1445 1444 1443 1442 1440
1480 1480 1480 1480 1479 1479 1479 1479 1478 1478 1478 1478 1478 1477 1477 1477 1477 1477 1476 1476 1476 1475 1475 1474 1474 1474 1473 1473 1473 1472 1471 1471 1470 1470 1469 1469 1468 1467 1467 1466 1465 1464 1464 1463 1463 1462 1461 1460 1460 1459 1458 1457 1456 1455 1454 1453 1452 1451 1450 1449 1448 1447 1446 1445 1444 1443 1441 1440 1439
1479 1479 1479 1478 1478 1478 1477 1477 1477 1477 1476 1476 1476 1476 1476 1476 1476 1475 1475 1475 1474 1474 1474 1473 1473 1473 1472 1472 1471 1471 1470 1470 1469 1469 1468 1467 1467 1466 1465 1465 1464 1463 1463 1462 1461 1461 1460 1459 1458 1457 1456 1455 1454 1454 1453 1452 1451 1450 1449 1448 1447 1446 1445 1444 1442 1441 1440 1439 1438
1477 1477 1477 1477 1476 1476 1476 1476 1475 1475 1475 1475 1475 1475 1475 1474 1474 1474 1474 1474 1473 1473 1472 1472 1472 1471 1471 1470 1470 1469 1469 1469 1468 1467 1467 1466 1466 1465 1464 1464 1463 1462 1462 1461 1460 1459 1459 1458 1457 1456 1455 1454 1453 1452 1452 1451 1450 1449 1448 1447 1446 1444 1444 1442 1441 1440 1439 1438 1437
1476 1476 1475 1475 1475 1474 1474 1474 1474 1474 1474 1474 1474 1474 1474 1473 1473 1473 1473 1472 1472 1471 1471 1471 1470 1470 1470 1469 1469 1468 1468 1467 1467 1466 1465 1465 1464 1464 1463 1463 1462 1461 1460 1460 1459 1458 1457 1456 1455 1454 1454 1453 1452 1451 1450 1450 1449 1448 1447 1445 1444 1443 1442 1441 1440 1439 1438 1437 1435
1474 1474 1474 1474 1473 1473 1473 1473 1473 1473 1473 1472 1472 1472 1472 1472 1472 1471 1471 1471 1471 1470 1470 1469 1469 1469 1469 1468 1468 1467 1466 1466 1465 1465 1464 1464 1463 1463 1462 1461 1461 1460 1459 1459 1458 1457 1456 1455 1454 1453 1452 1451 1451 1450 1449 1449 1448 1447 1445 1444 1443 1442 1441 1440 1439 1438 1436 1435 1434
1472 1472 1472 1472 1472 1472 1472 1471 1471 1471 1471 1471 1471 1471 1471 1470 1470 1470 1470 1469 1469 1469 1469 1468 1468 1468 1467 1467 1466 1466 1465 1465 1464 1464 1463 1463 1462 1461 1461 1460 1459 1459 1458 1457 1456 1456 1455 1454 1453 1452 1451 1450 1450 1449 1448 1448 1447 1445 1444 1443 1442 1440 1439 1439 1437 1436 1435 1434 1432
1471 1471 1470 1470 1470 1470 1470 1470 1470 1470 1470 1470 1469 1469 1469 1469 1469 1469 1468 1468 1468 1468 1467 1467 1467 1466 1466 1465 1465 1464 1464 1464 1463 1462 1462 1461 1461 1460 1459 1459 1458 1458 1457 1456 1455 1454 1454 1453 1452 1451 1450 1449 1449 1448 1447 1447 1446 1444 1443 1442 1441 1439 1438 1437 1436 1435 1434 1432 1431